[[[{"header":{"parameterUnit":"kt","parameterCategory":2,"dx":1,"dy":1,"la1":30.253999710083008,"la2":30.299108505249023,"lo1":-89.0895004272461,"lo2":-89.04439544677734,"nx":28,"ny":28,"refTime":"2022-10-14T21:00:00:Z","depth":0,"parameterNumber":1,"parameterNumberName":"U-component_of_WINDS"},"data":[-4.9901,-5.0056,-5.007,-5.0255,-5.0298,-5.0427,-5.0478,-5.0546,-5.0603,-5.0761,-5.0854,-5.0885,-5.095,-5.1066,-5.1169,-5.1181,-5.1224,-5.1269,-5.1276,-5.1059,-5.103,-5.1002,-5.0965,-5.1278,-5.1279,-5.1499,-5.1501,-5.1502,-4.9743,-4.9787,-4.9888,-4.9995,-5.0083,-5.0048,-5.0131,-5.0207,-5.0324,-5.0396,-5.0488,-5.0628,-5.0741,-5.0792,-5.0903,-5.0979,-5.0969,-5.1008,-5.1003,-5.1014,-5.0782,-5.0743,-5.1014,-5.1014,-5.1014,-5.1014,-5.1014,-5.1014,-4.9458,-4.9551,-4.9622,-4.9733,-4.979,-4.9863,-4.9954,-4.9989,-5.0089,-5.0205,-5.0203,-5.0336,-5.0412,-5.0553,-5.0605,-5.071,-5.067,-5.0717,-5.073,-5.0741,-5.0753,-5.0435,-5.073,-5.0729,-5.0729,-5.0728,-5.0728,0,-4.9254,-4.9258,-4.9356,-4.9458,-4.9539,-4.9619,-4.9696,-4.9753,-4.9768,-4.9851,-4.9972,-5.0044,-5.0188,-5.0304,-5.0412,-5.0455,-5.0428,-5.0427,-5.046,-5.0463,-5.0453,-5.0461,-5.0083,-5.0418,-5.0416,-5.0414,-5.0412,-5.0411,-4.8968,-4.9074,-4.9155,-4.9222,-4.9266,-4.9375,-4.9442,-4.9447,-4.9519,-4.9615,-4.9698,-4.9814,-4.9906,-5.0099,-5.014,-5.0248,-5.0236,-5.0363,-5.0252,-5.0251,-5.0239,-5.0233,-5.0244,-5.0384,-5.0387,-5.039,-5.0393,0,-4.8806,-4.8826,-4.8995,-4.9065,-4.9086,-4.9197,-4.9258,-4.9352,-4.9375,-4.9507,-4.9538,-4.9576,-4.9695,-4.9715,-4.9856,-4.9863,-5.0051,-5.0036,-5.0025,-5.0023,-5.0139,-5.0128,-5.051,-5.0561,-5.0235,-5.0239,-5.0241,0,-4.8571,-4.871,-4.8732,-4.8828,-4.8984,-4.8984,-4.9138,-4.9173,-4.9236,-4.934,-4.9311,-4.941,-4.9419,-4.9522,-4.9532,-4.9689,-4.9715,-4.973,-4.9732,-4.9733,-4.9732,-4.9772,-4.9757,-4.9729,-4.9727,-4.9725,-4.9724,0,-4.8315,-4.8489,-4.8646,-4.8689,-4.8778,-4.8852,-4.8893,-4.8963,-4.9029,-4.9118,-4.9162,-4.9266,-4.9324,-4.9406,-4.9418,-4.9343,-4.961,-4.9509,-4.9626,-4.9626,-4.9683,-4.968,-5.0013,-4.9721,-4.9721,-4.972,-4.9719,0,-4.8128,-4.8215,-4.8439,-4.8512,-4.8558,-4.8662,-4.8763,-4.8856,-4.8933,-4.8945,-4.9015,-4.8998,-4.9135,-4.9033,-4.9224,-4.9122,-4.9181,-4.9207,-4.9216,-4.9229,-4.9115,-4.93,-4.9615,-4.9649,-4.9243,-4.9239,-4.9235,0,-4.783,-4.8061,-4.8062,-4.8275,-4.8384,-4.8342,-4.8458,-4.8526,-4.8552,-4.8649,-4.8678,-4.8789,-4.8717,-4.8755,-4.8847,-4.8881,-4.9014,-4.8864,-4.9008,-4.9013,-4.8988,-4.9278,-4.932,-4.9544,-4.9184,-4.919,-4.9194,0,-4.7602,-4.7706,-4.7744,-4.7792,-4.788,-4.7971,-4.8104,-4.8213,-4.8278,-4.8357,-4.8469,-4.8626,-4.8578,-4.864,-4.8636,-4.8731,-4.8924,-4.8667,-4.8669,-4.8713,-4.916,-4.9199,-4.9237,-4.8902,-4.8908,-4.8913,-4.9153,0,-4.7315,-4.7432,-4.7535,-4.7642,-4.7715,-4.7849,-4.7866,-4.7941,-4.7929,-4.7952,-4.8118,-4.8178,-4.8291,-4.8337,-4.8327,-4.8536,-4.8504,-4.8452,-4.8354,-4.8543,-4.8623,-4.8656,-4.8233,-4.8231,-4.8228,-4.8226,0,0,-4.7026,-4.7193,-4.7189,-4.7316,-4.7377,-4.733,-4.7472,-4.7526,-4.7638,-4.7682,-4.7627,-4.7856,-4.7908,-4.8107,-4.8167,-4.8213,-4.8252,-4.8184,-4.8453,-4.8478,-4.8501,-4.8586,-4.862,-4.8222,-4.8221,-4.822,-4.822,0,-4.6924,-4.6974,-4.7113,-4.7169,-4.725,-4.7267,-4.7301,-4.7373,-4.7395,-4.7555,-4.7515,-4.7616,-4.7799,-4.7859,-4.7914,-4.8161,-4.8126,-4.8194,-4.8321,-4.8429,-4.8457,-4.8482,-4.8571,-4.8603,-4.8214,-4.8214,-4.8215,0,-4.6702,-4.6755,-4.6823,-4.6957,-4.701,-4.7124,-4.7024,-4.7148,-4.7232,-4.7175,-4.7335,-4.7371,-4.7453,-4.7637,-4.7721,-4.7673,-4.801,-4.7906,-4.7921,-4.7931,-4.8036,-4.807,-4.81,-4.7702,-4.77,-4.7698,0,0,-4.6612,-4.672,-4.6777,-4.6937,-4.6973,-4.6999,-4.7061,-4.7054,-4.7127,-4.7156,-4.7201,-4.7274,-4.738,-4.745,-4.7551,-4.7751,-4.7769,-4.7842,-4.7866,-4.7886,-4.7906,-4.8017,-4.805,-4.7691,-4.7691,-4.7691,0,0,-4.6569,-4.6641,-4.6615,-4.6802,-4.6871,-4.6939,-4.7037,-4.7007,-4.7099,-4.7085,-4.7082,-4.7101,-4.7274,-4.7311,-4.7214,-4.7516,-4.7419,-4.7442,-4.7486,-4.7516,-4.754,-4.7528,-4.7121,0,0,0,0,0,-4.6472,-4.6631,-4.6607,-4.6641,-4.6811,-4.6952,-4.6974,-4.6974,-4.6904,-4.6982,-4.7015,-4.6972,-4.7258,-4.7173,-4.7207,-4.7314,-4.7601,-4.7617,-4.7632,-4.7735,-4.7767,-4.7794,0,0,0,0,0,0,-4.6486,-4.6527,-4.6603,-4.6677,-4.6715,-4.6946,-4.6829,-4.6834,-4.6896,-4.6885,-4.6967,-4.6975,-4.6978,-4.7155,-4.7186,-4.7288,-4.7111,-4.7607,-4.7621,-4.7633,-4.7746,-4.7772,-4.7795,0,0,0,0,0,-4.6496,-4.6529,-4.6801,-4.6674,-4.6708,-4.6745,-4.6823,-4.6826,-4.6874,-4.6925,-4.6931,-4.6868,-4.6981,-4.7007,-4.7174,-4.7274,-4.7089,-4.7101,-4.7616,-4.7627,-4.7636,-4.7759,0,0,0,0,0,0,-4.6504,-4.6533,-4.6808,-4.6818,-4.6613,-4.6732,-4.675,-4.6819,-4.6909,-4.6917,-4.6825,-4.6815,-4.6985,-4.7004,-4.7025,-4.7269,-4.7072,-4.7084,-4.7091,-4.7624,-4.7632,-4.764,0,0,0,0,0,0,-4.6515,-4.6542,-4.6813,-4.6736,-4.6737,-4.672,-4.6737,-4.6878,-4.6911,-4.6804,-4.6799,-4.682,-4.6955,-4.7004,-4.7019,-4.724,-4.7058,-4.707,-4.7078,-4.7083,-4.7631,-4.7637,0,0,0,0,0,0,-4.6527,-4.655,-4.6733,-4.6735,-4.6735,-4.685,-4.6845,-4.702,-4.6844,-4.6801,-4.6828,-4.6821,-4.6955,-4.6971,-4.7016,-4.723,-4.7237,-4.7059,-4.7067,-4.7072,-4.7076,0,0,0,0,0,0,0,-4.6536,-4.6382,-4.6747,-4.6733,-4.6734,-4.6912,-4.6915,-4.6918,-4.6842,-4.6836,-4.683,-4.6824,-4.6994,-4.7006,-4.7019,-4.7222,0,0,-4.7058,-4.7063,0,0,0,0,0,0,0,0,-4.6372,-4.6379,-4.6748,-4.675,-4.6752,-4.6912,-4.6915,-4.6917,-4.6841,-4.6836,-4.6831,-4.6826,-4.6998,-4.7007,-4.7018,0,0,0,0,0,0,0,0,0,0,0,0,0,0,0,-4.6748,-4.675,0,-4.6913,-4.6915,-4.6917,-4.684,-4.6836,-4.6832,-4.6828,-4.7,-4.7008,-4.7017,0,0,0,0,0,0,0,0,0,0,0,0,0,0,0,0,0,0,0,0,0,0,0,0,0,0,0,0,0,0,0,0,0,0,0,0,0,0,0,0,0,0,0,0,0,0,0,0,0,0,0,0,0,0,0,0,0,0,0,0,0,0,0,0,0,0,0,0,0]}],[{"header":{"parameterUnit":"kt","parameterCategory":2,"dx":1,"dy":1,"la1":30.253999710083008,"la2":30.299108505249023,"lo1":-89.0895004272461,"lo2":-89.04439544677734,"nx":28,"ny":28,"refTime":"2022-10-14T21:00:00:Z","depth":0,"parameterNumber":2,"parameterNumberName":"V-component_of_WINDS"},"data":[3.8578,3.867,3.8696,3.8812,3.8855,3.8938,3.8976,3.9028,3.9075,3.9176,3.9238,3.9273,3.9329,3.9408,3.9476,3.9489,3.9516,3.953,3.9543,3.946,3.945,3.944,3.9421,3.9535,3.9536,3.9626,3.9626,3.9627,3.8516,3.856,3.8629,3.8713,3.8773,3.8776,3.8842,3.8891,3.8965,3.9023,3.9086,3.9177,3.9251,3.9303,3.9378,3.942,3.9424,3.9438,3.9435,3.9444,3.9356,3.9335,3.9433,3.9433,3.9433,3.9433,3.9433,3.9433,3.8409,3.8462,3.8529,3.8604,3.8654,3.871,3.8765,3.8807,3.8873,3.8956,3.8973,3.9056,3.9119,3.9221,3.9261,3.9326,3.9315,3.9337,3.9343,3.9348,3.935,3.9217,3.934,3.9339,3.9339,3.9339,3.9339,0,3.8339,3.8357,3.8425,3.8501,3.8557,3.8618,3.8677,3.8712,3.8758,3.8811,3.889,3.8939,3.9036,3.9111,3.9187,3.9224,3.923,3.9233,3.9249,3.9242,3.9226,3.9236,3.9091,3.9229,3.9228,3.9228,3.9227,3.9227,3.8232,3.8292,3.8374,3.8418,3.8457,3.8527,3.8574,3.8611,3.8658,3.8736,3.8781,3.8858,3.8921,3.9041,3.9086,3.9158,3.9161,3.9212,3.9172,3.9163,3.9162,3.9158,3.9164,3.9218,3.9219,3.922,3.9221,0,3.817,3.8213,3.8313,3.8388,3.8408,3.8468,3.8532,3.8586,3.862,3.8699,3.8719,3.8772,3.8847,3.8885,3.8978,3.8995,3.9093,3.9094,3.9072,3.9074,3.9123,3.9117,3.9275,3.9297,3.9179,3.918,3.9181,0,3.8096,3.8172,3.8231,3.8287,3.8372,3.8407,3.849,3.8528,3.8583,3.8645,3.8659,3.8717,3.8757,3.882,3.8845,3.8932,3.8949,3.8967,3.8973,3.8966,3.8964,3.899,3.8984,3.8984,3.8983,3.8982,3.8981,0,3.7994,3.8114,3.8205,3.8239,3.8326,3.8368,3.8405,3.8467,3.8512,3.8576,3.8606,3.8678,3.8717,3.8772,3.8804,3.8776,3.891,3.8878,3.8928,3.8928,3.8955,3.8953,3.9084,3.898,3.898,3.898,3.898,0,3.794,3.8006,3.8132,3.8204,3.8234,3.8294,3.8368,3.8428,3.8491,3.8512,3.8562,3.8576,3.8654,3.8619,3.8728,3.8682,3.872,3.8744,3.8749,3.8757,3.8717,3.8785,3.8906,3.892,3.8766,3.8764,3.8763,0,3.7811,3.7949,3.798,3.8098,3.8167,3.8179,3.8246,3.8301,3.8334,3.8396,3.8432,3.8502,3.8484,3.8511,3.856,3.8599,3.8658,3.8592,3.8679,3.8681,3.8662,3.8774,3.8782,3.8876,3.874,3.8743,3.8744,0,3.7717,3.7822,3.7841,3.7882,3.7962,3.8019,3.8095,3.8173,3.8213,3.8274,3.8338,3.8437,3.8428,3.8472,3.849,3.8538,3.8619,3.8521,3.8523,3.8537,3.8732,3.874,3.8756,3.862,3.8623,3.8625,3.8727,0,3.7626,3.77,3.7753,3.7841,3.7891,3.7967,3.8009,3.8056,3.8069,3.8102,3.8196,3.8251,3.8328,3.8355,3.8368,3.8468,3.8456,3.8445,3.8413,3.8486,3.8521,3.8535,3.8358,3.8358,3.8357,3.8357,0,0,3.7492,3.7599,3.763,3.7706,3.775,3.7761,3.7839,3.7883,3.7971,3.8001,3.7984,3.8131,3.8175,3.8285,3.8311,3.8342,3.8364,3.8336,3.8451,3.8461,3.8471,3.8507,3.8522,3.8356,3.8355,3.8355,3.8355,0,3.7468,3.7516,3.7592,3.764,3.7711,3.7743,3.7761,3.7833,3.7857,3.795,3.7956,3.8018,3.8133,3.818,3.8219,3.8324,3.8324,3.8345,3.8388,3.8444,3.8455,3.8465,3.8503,3.8516,3.8353,3.8354,3.8354,0,3.7382,3.7436,3.7477,3.7579,3.7626,3.7695,3.7673,3.7748,3.7799,3.7805,3.7897,3.7932,3.7997,3.8096,3.8142,3.8127,3.8286,3.8243,3.8248,3.8253,3.8309,3.8322,3.8334,3.8177,3.8176,3.8175,0,0,3.7355,3.7424,3.7492,3.7577,3.7606,3.7653,3.7694,3.7711,3.7771,3.7794,3.784,3.7896,3.7964,3.8008,3.8073,3.8176,3.8191,3.8219,3.8228,3.8234,3.8243,3.8301,3.8314,3.8172,3.8172,3.8172,0,0,3.7341,3.7424,3.7427,3.7531,3.7589,3.766,3.771,3.7715,3.7778,3.7774,3.7804,3.782,3.7913,3.7947,3.7904,3.8062,3.803,3.8041,3.8036,3.8048,3.8056,3.8045,3.7886,0,0,0,0,0,3.7337,3.7414,3.7416,3.744,3.7567,3.7659,3.7676,3.7704,3.7681,3.772,3.7758,3.7756,3.793,3.7893,3.7915,3.7962,3.8135,3.8142,3.8148,3.8167,3.8178,3.8187,0,0,0,0,0,0,3.7347,3.7376,3.7414,3.7489,3.7518,3.7657,3.7624,3.7634,3.7678,3.7676,3.7749,3.7758,3.7783,3.7883,3.7903,3.7947,3.788,3.8138,3.8143,3.8148,3.817,3.818,3.8187,0,0,0,0,0,3.7355,3.7378,3.7575,3.7488,3.7513,3.7569,3.7621,3.7629,3.7663,3.7723,3.7732,3.7681,3.7783,3.7801,3.7895,3.7938,3.7867,3.7874,3.8141,3.8146,3.815,3.8175,0,0,0,0,0,0,3.736,3.7385,3.7581,3.759,3.7461,3.7562,3.7579,3.7625,3.7708,3.7718,3.7656,3.7654,3.7785,3.7798,3.7812,3.7933,3.7856,3.7863,3.7868,3.8145,3.8148,3.8151,0,0,0,0,0,0,3.7373,3.7392,3.7585,3.755,3.7555,3.7555,3.757,3.7653,3.7709,3.7637,3.7637,3.7654,3.7763,3.7797,3.7807,3.7936,3.7848,3.7855,3.7859,3.7862,3.8147,3.815,0,0,0,0,0,0,3.7382,3.7398,3.7548,3.7552,3.7556,3.7655,3.7628,3.7757,3.768,3.7633,3.7674,3.7671,3.7761,3.7773,3.7804,3.7928,3.7934,3.7848,3.7853,3.7856,3.7858,0,0,0,0,0,0,0,3.7389,3.727,3.753,3.7553,3.7556,3.767,3.7672,3.7674,3.768,3.7677,3.7675,3.7672,3.7808,3.7816,3.7823,3.7921,0,0,3.7847,3.7851,0,0,0,0,0,0,0,0,3.7263,3.7268,3.753,3.7532,3.7534,3.767,3.7672,3.7674,3.7679,3.7677,3.7675,3.7673,3.781,3.7816,3.7822,0,0,0,0,0,0,0,0,0,0,0,0,0,0,0,3.753,3.7532,0,3.767,3.7672,3.7673,3.7679,3.7677,3.7676,3.7674,3.7812,3.7817,3.7822,0,0,0,0,0,0,0,0,0,0,0,0,0,0,0,0,0,0,0,0,0,0,0,0,0,0,0,0,0,0,0,0,0,0,0,0,0,0,0,0,0,0,0,0,0,0,0,0,0,0,0,0,0,0,0,0,0,0,0,0,0,0,0,0,0,0,0,0,0]}]]]